Regional Weather Roundup
Issued by NWS Upton, NY

Home | Current Version | Previous Version | Text Only | Print | Product List | Glossary On
Versions: 1 2 3 4 5 6 7 8 9 10 11 12 13 14 15 16 17 18 19 20 21 22 23 24 25 26 27 28 29 30 31
000
ASUS41 KOKX 252204
RWROKX

REGIONAL WEATHER ROUNDUP
NATIONAL WEATHER SERVICE NEW YORK NY
600 PM EDT THU AUG 25 2016

NOTE: "FAIR" INDICATES FEW OR NO CLOUDS BELOW 12,000 FEET WITH NO
SIGNIFICANT WEATHER AND/OR OBSTRUCTIONS TO VISIBILITY.

NYZ071-072-176-178-NJZ106-104-252300-
NEW YORK CITY METRO AREA

CITY           SKY/WX    TMP DP  RH WIND       PRES   REMARKS
Central Park     N/A     81  70  69 MISG        N/A
LaGuardia APRT CLOUDY    80  69  69 S15       30.00S
Kennedy INTL   CLOUDY    78  73  84 S21G28    30.01F
Newark/Liberty CLOUDY    82  72  71 VRB7      29.99F
Bronx Bot Gard   N/A     77  68  73 E5        30.03R
Wall St Helipt CLOUDY    81  72  74 W5        30.01S
Teterboro      CLOUDY    80  70  71 S8        29.99F
$$

NYZ177-179-078>081-252300-
LONG ISLAND NEW YORK

CITY           SKY/WX    TMP DP  RH WIND       PRES   REMARKS
Farmingdale    CLOUDY    78  67  68 S18G29    30.02F
MacArthur/ISP  PTSUNNY   78  67  68 S13G22    30.02F
Shirley        SUNNY     78  68  71 S10G18    30.03F
Riverhead      NOT AVBL
Westhampton    SUNNY     77  66  68 SW12G21   30.05F
Southampton      N/A     75  70  83 SW7       30.00F
Bridgehampton    N/A     77  68  73 W2        30.03S
East Hampton   FAIR      76  67  73 SW10      30.04S
Montauk          N/A     77  67  71 SW7       30.06R
$$

NYZ052-065-067-252300-
HUDSON VALLEY

CITY           SKY/WX    TMP DP  RH WIND       PRES   REMARKS
White Plains   PTSUNNY   78  66  66 S7        30.02S
Newburgh       PTSUNNY   81  72  74 SW7       30.01F
Montgomery     CLOUDY    81  72  74 S10       29.99S
Poughkeepsie   CLOUDY    77  67  71 S5        29.98S
Albany         CLOUDY    75  73  93 SE3       29.96S
$$

NJZ001-105-106-008-010-013-015-019>022-104-252300-
NEW JERSEY

CITY           SKY/WX    TMP DP  RH WIND       PRES   REMARKS
Newark/Liberty CLOUDY    82  72  71 VRB7      29.99F
Teterboro      CLOUDY    80  70  71 S8        29.99F
Caldwell       CLOUDY    82  70  66 VRB5      30.00F
Morristown     CLOUDY    81  72  74 SW7       30.00F
Somerville     CLOUDY    83  71  67 VRB5      29.98F
Linden         CLOUDY    83  68  60 W5        30.01F
Sussex         CLOUDY    79  72  79 VRB5      30.01S
Abdover          N/A     78  71  79 SW5       30.02S
Trenton        CLOUDY    85  70  60 SW13      30.00F
Millville      CLOUDY    81  73  76 S6        30.03F
Atlantic City  CLOUDY    82  64  54 S12       30.04F
Wrightstown    MOSUNNY   83  71  66 SW10G22   29.99F
Toms River     MOSUNNY   82  69  64 S12       30.03S
Belmar         CLOUDY    83  70  64 S10       30.03S
$$

PAZ047>061-062-071-252300-
EASTERN PENNSYLVANIA

CITY           SKY/WX    TMP DP  RH WIND       PRES   REMARKS
Philadelphia   PTSUNNY   84  71  65 SW12      30.02F
Allentown      CLOUDY    82  70  66 W7        30.01F
Scranton       SUNNY     79  72  79 SW8       30.02F
$$

CTZ002-004>006-009-010-012-RIZ004-006-007-MAZ004-011-015-252300-
SOUTHERN NEW ENGLAND
 IN CT

CITY           SKY/WX    TMP DP  RH WIND       PRES   REMARKS
Bradley INTL   PTSUNNY   81  64  56 S14       30.00S
Hartford       MOSUNNY   83  66  56 S13       30.00R
Danbury        CLOUDY    77  65  66 SW8       30.03S
Wtrbury/Oxford PTSUNNY   75  63  64 S12       30.06S
Bridgeport     CLOUDY    81  67  62 SW13      30.02S
Meriden        CLOUDY    81  65  58 S7        30.01S
New Haven      CLOUDY    79  68  69 S6        30.02F
Chester        FAIR      79  66  65 VRB7G14   30.04S
Groton         SUNNY     77  68  73 SW9       30.03S
Wilimantic     MOSUNNY   80  67  64 S10       30.02S

 IN RI

CITY           SKY/WX    TMP DP  RH WIND       PRES   REMARKS
Providence     PTSUNNY   79  63  57 SW15      30.02S
Block Island   SUNNY     77  68  73 SW13      30.05S
Westerly       SUNNY     78  64  61 S13       30.05S
 IN MA

CITY           SKY/WX    TMP DP  RH WIND       PRES   REMARKS
Boston         PTSUNNY   83  65  54 SW16      29.97S
Worcester      MOSUNNY   77  64  64 SW17G24   30.03S
Westfield      CLOUDY    81  66  60 S10G24    29.98S
Provincetown   SUNNY     75  66  73 SW17      30.02S
Nantucket      MOSUNNY   73  67  81 S13       30.06S
$$

ANZ330-335-338-340-345-350-353-355-252300-
COASTAL MARINE OBSERVATIONS


STATION/POSITION TIME  SKY/WX   TEMP    WIND        PRES    VSBY  WAVE
                                AIR SEA DIR/SP/G                  HT/PER
                 (UTC)          (F)     (DEG/KT/KT) (MB)    (MI)  (FT/S)
NY HARB ENTRANCE 2050            76 74  200/ 19/ 23 1016.3          4/ 5
20S FIRE ISLAND  2050            77 75  210/ 17/ 21 1016.7          3/10
GREAT SOUTH BAY  2130            76 79  200/ 12/ 16   N/A
23 SSW MONTAUK P 2050            76 74  220/ 16/ 17 1017.7          3/10
15 E BARNEGAT LI 2100               76                N/A           3/ 4
HUDSON CANYON    2050            78 78              1017.9          3/ 9
KINGS POINT      2100            78 77              1016.0
EXECUTION ROCKS  2100            80     180/ 12/ 17   N/A
CENTRAL LI SOUND 2115            78 75  210/ 14/ 17   N/A           2/ 3
EASTERN LI SOUND 2100            74 70  210/ 10/ 14   N/A
ROBBINS REEF     2100            76     170/ 15/ 16 1015.3
$$


>>>>>>>>>>>>>>>>>>>>>>>>>>>> KEY <<<<<<<<<<<<<<<<<<<<<<<<<<<
>                                                          <
>     SKY/WX - Sky Condition/Present Weather               <
>     TMP    - Temperature in Fahrenheit                   <
>     DP     - Dew Point in Fahrenheit                     <
>     RH     - Relative Humidity in Percent                <
>     WIND   - Direction (from) and Speed in MPH           <
>     PRES   - Mean Sea Level Pressure (inches of Hg)      <
>     WCI    - Wind Chill Index                            <
>     VSB    - VISIBILITY IN MILES                         <
>     HX     - HEAT INDEX                                  <
>     TC     - TEMPERATURE IN CELSIUS                      <
>     VRB    - VARIABLE WIND DIRECTION                     <
>                                                          <
>>>>>>>>>>>>>>>>>>>>>>>>>>>> KEY <<<<<<<<<<<<<<<<<<<<<<<<<<<




USA.gov is the U.S. government's official web portal to all federal, state and local government web resources and services.